Tracking 29892 objects as of 21-Nov-2024
HD Live streaming from Space Station
objects crossing your sky now

CZ-6A DEB

Track CZ-6A DEB now!
10-day predictions


NORAD ID: 54304
Int'l Code: 2022-151AX
Perigee: 822.9 km
Apogee: 887.6 km
Inclination: 98.8 °
Period: 101.9 minutes
Semi major axis: 7226 km
RCS: Unknown
Launch date: November 11, 2022
Source: People's Republic of China (PRC)
Launch site: Taiyaun Space Center, China (TSC)

Note: This is SATELLITE DEBRIS
Your satellite tracking list
Your tracking list is empty




NASA's NSSDC Master Catalog

Two Line Element Set (TLE):
1 54304U 22151AX  24325.45556066  .00002884  00000-0  15464-2 0  9994
2 54304  98.8372 327.9809 0044732 144.8732 215.5404 14.13291380103672
Source of the keplerian elements: AFSPC